Погода в Твердовке

Беларусь     52°17′33″N   25°54′35″E
темп.,
°C
ветер,
м/с
пор.,
м/с
влажн.,
%
обл.,
%
осадки,
мм/ч
давл.,
гПа
погр.,
м
27 сентября, пн
пн2700:00+8св36825 0.0 1024103
03:00+6всв35923 0.0 102581
06:00+5всв36940 0.0 1026124
09:00+7всв36835 0.0 1026226
12:00+12в45640 0.0 1026803
15:00+14всв45588 0.0 10251153
18:00+12в46700 0.0 1024224
21:00+8в410860 0.0 1026210
28 сентября, вт
вт2800:00+6в34874 0.0 102652
03:00+6в22860 0.0 102618
06:00+5в34933 0.0 102653
09:00+8всв368140 0.0 1027162
12:00+12в466992 0.0 1028579
15:00+14в455698 0.1 10271509
18:00+12всв3667100 0.0 1028177
21:00+10в3771100 0.0 1029189
29 сентября, ср
ср2900:00+10в497498 0.0 1030288
03:00+6в38935 0.0 1031144
06:00+5в49965 0.0 1031190
09:00+7в59895 0.0 1031287
12:00+11вюв687287 0.0 1032650
15:00+13вюв676510 0.0 1031942
18:00+12вюв596873 0.0 1030421
21:00+10вюв5117045 0.0 1031417
30 сентября, чт
чт3000:00+7юв411805 0.0 1031322
03:00+6вюв512811 0.0 1031308
06:00+5вюв512863 0.0 1031260
09:00+7юв512771 0.0 1030332
12:00+12юв79600 0.0 1030718
15:00+15ююв68535 0.0 10291197
18:00+13юв4866100 0.0 1029232
21:00+9юв41074100 0.0 1029177
1 октября, пт
пт100:00+9юв41171100 0.0 1030233
03:00+9ююв41067100 0.0 1030248
06:00+9юв4963100 0.0 1029235
09:00+8ююв4965100 0.0 1030238
12:00+10ююв4961100 0.0 1030346
15:00+13ююв365981 0.0 1029368
18:00+12ююз2364100 0.0 102872
21:00+12юв385891 0.0 1028190